QPF
0.02 0.02 0.02 0.02 0.01 0.03 0.04 0.03 0.03 0.03 0.01 0.00 0.01 0.01 0.00 0.00 0.01 0.04 0.06 0.04 0.02 0.02 0.04 0.05 0.04 0.03 0.03 0.03 0.03 0.02 0.02 0.02 0.02 0.02 0.02 0.01 0.01 0.01 0.01 0.01 0.01 0.01 0.01
0.04 0.03 0.03 0.03 0.03 0.04 0.05 0.05 0.04 0.04 0.03 0.02 0.02 0.01 0.01 0.01 0.02 0.05 0.08 0.05 0.03 0.03 0.05 0.05 0.05 0.04 0.04 0.04 0.03 0.02 0.02 0.02 0.02 0.02 0.01 0.01 0.01 0.01 0.02 0.02 0.02 0.01 0.01
0.07 0.04 0.05 0.06 0.05 0.05 0.05 0.05 0.05 0.06 0.06 0.04 0.03 0.02 0.03 0.02 0.05 0.11 0.12 0.10 0.07 0.05 0.05 0.05 0.05 0.05 0.04 0.04 0.03 0.02 0.02 0.02 0.01 0.01 0.02 0.02 0.02 0.02 0.02 0.02 0.02 0.01 0.01
0.05 0.06 0.06 0.08 0.06 0.06 0.08 0.08 0.08 0.09 0.10 0.08 0.07 0.06 0.05 0.05 0.05 0.09 0.10 0.11 0.12 0.10 0.06 0.04 0.04 0.04 0.04 0.04 0.03 0.03 0.02 0.02 0.02 0.02 0.02 0.02 0.02 0.02 0.01 0.01 0.01 0.01 0.00
0.06 0.07 0.08 0.10 0.08 0.09 0.09 0.08 0.10 0.12 0.14 0.13 0.09 0.07 0.06 0.06 0.05 0.04 0.04 0.07 0.11 0.12 0.09 0.06 0.04 0.04 0.04 0.04 0.04 0.04 0.03 0.03 0.03 0.02 0.02 0.03 0.03 0.02 0.01 0.01 0.01 0.01 0.01
0.09 0.11 0.11 0.11 0.09 0.11 0.13 0.12 0.14 0.12 0.14 0.12 0.08 0.07 0.07 0.06 0.06 0.07 0.05 0.06 0.06 0.06 0.07 0.07 0.06 0.05 0.04 0.05 0.05 0.05 0.05 0.05 0.04 0.04 0.04 0.04 0.04 0.03 0.03 0.02 0.02 0.01 0.01
0.11 0.13 0.13 0.15 0.15 0.17 0.18 0.19 0.18 0.16 0.14 0.11 0.12 0.14 0.12 0.08 0.07 0.07 0.06 0.07 0.06 0.05 0.07 0.08 0.07 0.06 0.04 0.04 0.04 0.03 0.04 0.04 0.04 0.04 0.04 0.05 0.04 0.04 0.03 0.03 0.02 0.02 0.02
0.12 0.13 0.14 0.16 0.17 0.21 0.21 0.22 0.21 0.21 0.17 0.14 0.16 0.20 0.22 0.16 0.10 0.07 0.06 0.06 0.06 0.05 0.05 0.06 0.05 0.04 0.03 0.03 0.03 0.02 0.02 0.03 0.04 0.04 0.05 0.05 0.05 0.04 0.04 0.04 0.04 0.03 0.02
0.15 0.17 0.18 0.20 0.20 0.20 0.20 0.21 0.21 0.22 0.21 0.20 0.20 0.22 0.23 0.20 0.14 0.08 0.06 0.04 0.03 0.03 0.03 0.03 0.03 0.03 0.03 0.02 0.02 0.02 0.02 0.02 0.02 0.03 0.03 0.04 0.04 0.04 0.04 0.04 0.05 0.04 0.04
0.19 0.20 0.22 0.22 0.20 0.18 0.18 0.18 0.19 0.20 0.24 0.24 0.19 0.15 0.13 0.11 0.11 0.09 0.05 0.03 0.02 0.02 0.02 0.01 0.02 0.02 0.02 0.01 0.01 0.01 0.01 0.01 0.01 0.01 0.01 0.01 0.01 0.02 0.02 0.02 0.03 0.04 0.04
0.21 0.19 0.17 0.17 0.18 0.19 0.19 0.19 0.19 0.20 0.20 0.17 0.12 0.09 0.08 0.07 0.06 0.06 0.05 0.03 0.02 0.02 0.02 0.02 0.02 0.02 0.01 0.01 0.01 0.01 0.01 0.01 0.00 0.00 0.00 0.01 0.01 0.01 0.01 0.01 0.02 0.02 0.02
0.17 0.15 0.13 0.13 0.13 0.12 0.13 0.13 0.13 0.12 0.11 0.10 0.06 0.04 0.03 0.04 0.04 0.04 0.04 0.03 0.02 0.02 0.02 0.02 0.02 0.02 0.01 0.01 0.01 0.01 0.01 0.01 0.01 0.01 0.01 0.00 0.00 0.00 0.01 0.01 0.01 0.02 0.02
0.16 0.14 0.12 0.10 0.10 0.09 0.08 0.07 0.06 0.06 0.06 0.05 0.04 0.03 0.03 0.03 0.02 0.02 0.02 0.02 0.02 0.01 0.01 0.01 0.01 0.01 0.01 0.01 0.01 0.01 0.01 0.01 0.00 0.00 0.01 0.00 0.00 0.00 0.00 0.00 0.01 0.01 0.02
0.15 0.12 0.10 0.09 0.09 0.07 0.06 0.05 0.05 0.04 0.03 0.02 0.02 0.02 0.02 0.02 0.02 0.02 0.02 0.02 0.02 0.02 0.01 0.01 0.00 0.00 0.00 0.00 0.00 0.00 0.00 0.00 0.00 0.00 0.00 0.00 0.00 0.00 0.00 0.00 0.00 0.01 0.01
0.12 0.09 0.07 0.07 0.07 0.06 0.05 0.04 0.04 0.03 0.02 0.02 0.02 0.01 0.01 0.02 0.01 0.01 0.01 0.01 0.01 0.01 0.01 0.01 0.00 0.00 0.00 0.00 0.00 0.00 0.00 0.00 0.00 0.00 0.00 0.00 0.00 0.00 0.00 0.00 0.00 0.00 0.00
0.09 0.08 0.07 0.07 0.07 0.07 0.05 0.05 0.04 0.03 0.03 0.02 0.02 0.02 0.02 0.02 0.02 0.02 0.02 0.01 0.01 0.01 0.01 0.01 0.01 0.00 0.00 0.00 0.00 0.00 0.00 0.00 0.01 0.00 0.00 0.00 0.00 0.00 0.00 0.00 0.00 0.00 0.00
0.10 0.09 0.09 0.09 0.09 0.08 0.07 0.06 0.06 0.05 0.04 0.03 0.03 0.03 0.03 0.02 0.03 0.03 0.02 0.02 0.02 0.01 0.01 0.00 0.00 0.00 0.00 0.00 0.01 0.01 0.01 0.01 0.01 0.01 0.00 0.00 0.00 0.00 0.00 0.00 0.00 0.00 0.00
0.08 0.08 0.08 0.09 0.09 0.08 0.07 0.07 0.06 0.05 0.04 0.03 0.03 0.02 0.02 0.01 0.01 0.01 0.01 0.01 0.00 0.00 0.01 0.00 0.00 0.00 0.01 0.01 0.01 0.01 0.01 0.00 0.01 0.00 0.00 0.00 0.00 0.00 0.00 0.00 0.00 0.00 0.00
0.06 0.06 0.05 0.05 0.05 0.04 0.04 0.03 0.02 0.01 0.01 0.01 0.01 0.01 0.00 0.00 0.01 0.01 0.00 0.00 0.00 0.00 0.01 0.01 0.01 0.01 0.01 0.01 0.01 0.01 0.02 0.03 0.01 0.00 0.00 0.00 0.01 0.00 0.00 0.00 0.00 0.00 0.00
0.03 0.02 0.01 0.01 0.01 0.01 0.00 0.00 0.00 0.00 0.00 0.00 0.00 0.00 0.00 0.00 0.00 0.00 0.00 0.01 0.01 0.01 0.01 0.01 0.01 0.01 0.01 0.02 0.02 0.03 0.03 0.03 0.02 0.01 0.01 0.01 0.01 0.01 0.01 0.01 0.00 0.00 0.00
0.00 0.00 0.00 0.00 0.00 0.00 0.00 0.00 0.00 0.00 0.00 0.00 0.00 0.00 0.00 0.00 0.00 0.00 0.00 0.00 0.00 0.00 0.01 0.01 0.01 0.01 0.02 0.03 0.04 0.04 0.03 0.03 0.02 0.02 0.03 0.02 0.03 0.04 0.03 0.03 0.02 0.01 0.01
0.00 0.00 0.00 0.00 0.00 0.00 0.00 0.00 0.00 0.00 0.00 0.01 0.01 0.01 0.01 0.00 0.00 0.00 0.00 0.00 0.00 0.00 0.00 0.00 0.01 0.02 0.03 0.05 0.05 0.04 0.04 0.03 0.02 0.03 0.03 0.02 0.03 0.04 0.03 0.03 0.01 0.00 0.00
0.01 0.01 0.01 0.01 0.01 0.00 0.00 0.00 0.00 0.00 0.01 0.01 0.01 0.01 0.01 0.01 0.01 0.01 0.01 0.00 0.01 0.01 0.01 0.01 0.01 0.03 0.05 0.05 0.04 0.03 0.03 0.03 0.03 0.04 0.04 0.03 0.03 0.03 0.02 0.01 0.00 0.00 0.00
0.01 0.01 0.01 0.01 0.01 0.00 0.00 0.00 0.00 0.00 0.01 0.01 0.01 0.02 0.02 0.02 0.01 0.00 0.00 0.01 0.03 0.06 0.04 0.03 0.04 0.04 0.03 0.02 0.02 0.01 0.01 0.02 0.04 0.06 0.05 0.03 0.02 0.02 0.01 0.03 0.02 0.00 0.00
0.01 0.01 0.01 0.01 0.02 0.01 0.00 0.00 0.00 0.00 0.01 0.01 0.01 0.01 0.01 0.01 0.00 0.00 0.00 0.01 0.04 0.06 0.04 0.02 0.01 0.01 0.00 0.00 0.00 0.00 0.02 0.04 0.05 0.06 0.05 0.03 0.02 0.01 0.01 0.03 0.03 0.01 0.00
0.02 0.02 0.01 0.01 0.02 0.01 0.00 0.00 0.00 0.00 0.01 0.02 0.03 0.04 0.02 0.00 0.00 0.00 0.00 0.01 0.03 0.03 0.03 0.02 0.04 0.04 0.05 0.04 0.02 0.01 0.03 0.06 0.07 0.06 0.05 0.03 0.03 0.03 0.02 0.02 0.03 0.05 0.05
MSLP
1015.86 1016.17 1016.40 1016.57 1016.70 1016.83 1016.96 1017.09 1017.22 1017.31 1017.35 1017.33 1017.24 1017.12 1016.98 1016.88 1016.85 1016.93 1017.12 1017.40 1017.76 1018.17 1018.57 1018.95 1019.28 1019.57 1019.82 1020.06 1020.30 1020.55 1020.81 1021.09 1021.36 1021.63 1021.88 1022.10 1022.30 1022.49 1022.67 1022.84 1023.02 1023.20 1023.38
1015.49 1015.85 1016.14 1016.37 1016.56 1016.74 1016.91 1017.09 1017.25 1017.39 1017.49 1017.52 1017.48 1017.39 1017.27 1017.16 1017.10 1017.11 1017.22 1017.42 1017.71 1018.04 1018.40 1018.76 1019.10 1019.40 1019.67 1019.92 1020.16 1020.41 1020.67 1020.93 1021.20 1021.47 1021.73 1021.97 1022.20 1022.42 1022.63 1022.83 1023.03 1023.23 1023.43
1015.24 1015.65 1016.00 1016.29 1016.54 1016.77 1016.99 1017.21 1017.42 1017.61 1017.75 1017.82 1017.83 1017.76 1017.65 1017.52 1017.40 1017.34 1017.36 1017.47 1017.66 1017.93 1018.24 1018.57 1018.91 1019.22 1019.52 1019.79 1020.04 1020.28 1020.53 1020.78 1021.03 1021.28 1021.54 1021.79 1022.03 1022.27 1022.51 1022.73 1022.96 1023.18 1023.39
1015.14 1015.59 1015.98 1016.32 1016.63 1016.91 1017.16 1017.42 1017.66 1017.87 1018.04 1018.14 1018.17 1018.12 1018.01 1017.86 1017.70 1017.57 1017.50 1017.52 1017.63 1017.83 1018.10 1018.41 1018.74 1019.07 1019.39 1019.68 1019.94 1020.19 1020.42 1020.65 1020.87 1021.10 1021.34 1021.58 1021.82 1022.07 1022.31 1022.56 1022.80 1023.03 1023.26
1015.21 1015.67 1016.10 1016.48 1016.82 1017.12 1017.39 1017.65 1017.89 1018.10 1018.28 1018.40 1018.44 1018.41 1018.30 1018.14 1017.95 1017.77 1017.64 1017.59 1017.63 1017.76 1017.99 1018.28 1018.62 1018.97 1019.31 1019.62 1019.90 1020.15 1020.37 1020.58 1020.77 1020.97 1021.17 1021.38 1021.61 1021.84 1022.08 1022.32 1022.56 1022.80 1023.03
1015.45 1015.93 1016.38 1016.77 1017.11 1017.40 1017.66 1017.89 1018.10 1018.28 1018.44 1018.56 1018.61 1018.58 1018.49 1018.33 1018.14 1017.94 1017.77 1017.67 1017.66 1017.76 1017.95 1018.22 1018.56 1018.92 1019.28 1019.62 1019.92 1020.18 1020.40 1020.59 1020.75 1020.92 1021.08 1021.25 1021.44 1021.64 1021.85 1022.07 1022.29 1022.50 1022.71
1015.90 1016.39 1016.83 1017.22 1017.54 1017.79 1017.99 1018.16 1018.31 1018.44 1018.56 1018.65 1018.70 1018.69 1018.62 1018.48 1018.31 1018.11 1017.94 1017.82 1017.77 1017.83 1017.99 1018.25 1018.57 1018.94 1019.32 1019.68 1020.00 1020.28 1020.50 1020.68 1020.83 1020.96 1021.08 1021.21 1021.35 1021.51 1021.67 1021.84 1022.01 1022.18 1022.34
1016.56 1017.06 1017.49 1017.85 1018.12 1018.31 1018.44 1018.52 1018.59 1018.65 1018.71 1018.77 1018.81 1018.81 1018.77 1018.67 1018.53 1018.36 1018.19 1018.06 1017.99 1018.02 1018.14 1018.36 1018.66 1019.02 1019.40 1019.78 1020.12 1020.41 1020.65 1020.84 1020.98 1021.08 1021.18 1021.26 1021.35 1021.44 1021.54 1021.65 1021.76 1021.86 1021.96
1017.43 1017.93 1018.34 1018.66 1018.87 1018.99 1019.02 1019.02 1018.99 1018.97 1018.98 1019.00 1019.03 1019.05 1019.04 1018.98 1018.87 1018.73 1018.58 1018.44 1018.34 1018.32 1018.39 1018.56 1018.82 1019.15 1019.51 1019.89 1020.24 1020.55 1020.81 1021.01 1021.15 1021.25 1021.32 1021.37 1021.41 1021.44 1021.48 1021.52 1021.55 1021.58 1021.61
1018.47 1018.96 1019.35 1019.62 1019.76 1019.80 1019.75 1019.66 1019.55 1019.46 1019.41 1019.40 1019.43 1019.46 1019.47 1019.45 1019.38 1019.26 1019.11 1018.95 1018.81 1018.73 1018.73 1018.83 1019.01 1019.28 1019.61 1019.96 1020.32 1020.64 1020.91 1021.13 1021.28 1021.39 1021.44 1021.46 1021.47 1021.45 1021.43 1021.41 1021.38 1021.34 1021.30
1019.59 1020.06 1020.41 1020.62 1020.71 1020.68 1020.57 1020.41 1020.24 1020.10 1020.02 1019.99 1020.00 1020.04 1020.08 1020.08 1020.03 1019.92 1019.76 1019.57 1019.38 1019.22 1019.13 1019.13 1019.22 1019.41 1019.67 1019.98 1020.31 1020.63 1020.91 1021.14 1021.31 1021.41 1021.47 1021.48 1021.46 1021.41 1021.35 1021.28 1021.20 1021.12 1021.02
1020.68 1021.11 1021.41 1021.58 1021.61 1021.54 1021.39 1021.19 1020.99 1020.83 1020.72 1020.68 1020.70 1020.74 1020.79 1020.81 1020.77 1020.65 1020.47 1020.24 1019.98 1019.74 1019.55 1019.43 1019.42 1019.50 1019.68 1019.92 1020.20 1020.49 1020.77 1021.00 1021.17 1021.28 1021.34 1021.34 1021.31 1021.24 1021.16 1021.07 1020.97 1020.87 1020.75
1021.63 1022.01 1022.25 1022.37 1022.37 1022.28 1022.11 1021.90 1021.70 1021.54 1021.43 1021.39 1021.41 1021.46 1021.51 1021.53 1021.49 1021.36 1021.15 1020.87 1020.56 1020.23 1019.94 1019.72 1019.59 1019.56 1019.64 1019.79 1020.01 1020.25 1020.49 1020.70 1020.86 1020.96 1021.01 1021.01 1020.97 1020.91 1020.83 1020.74 1020.64 1020.55 1020.43
1022.37 1022.68 1022.86 1022.94 1022.92 1022.82 1022.66 1022.47 1022.29 1022.14 1022.05 1022.02 1022.04 1022.09 1022.13 1022.15 1022.09 1021.95 1021.72 1021.41 1021.05 1020.66 1020.29 1019.98 1019.74 1019.61 1019.57 1019.63 1019.76 1019.92 1020.10 1020.26 1020.39 1020.47 1020.50 1020.48 1020.44 1020.38 1020.31 1020.24 1020.18 1020.11 1020.04
1022.87 1023.10 1023.23 1023.28 1023.25 1023.16 1023.03 1022.87 1022.72 1022.60 1022.53 1022.50 1022.52 1022.55 1022.58 1022.58 1022.52 1022.37 1022.14 1021.81 1021.43 1021.01 1020.59 1020.20 1019.89 1019.66 1019.52 1019.47 1019.50 1019.57 1019.66 1019.76 1019.82 1019.85 1019.84 1019.80 1019.75 1019.68 1019.63 1019.59 1019.57 1019.56 1019.53
1023.15 1023.31 1023.41 1023.44 1023.43 1023.36 1023.26 1023.14 1023.02 1022.92 1022.85 1022.82 1022.82 1022.83 1022.84 1022.82 1022.75 1022.61 1022.38 1022.07 1021.70 1021.28 1020.84 1020.42 1020.05 1019.74 1019.52 1019.37 1019.28 1019.25 1019.24 1019.24 1019.22 1019.18 1019.11 1019.03 1018.95 1018.88 1018.84 1018.83 1018.84 1018.88 1018.93
1023.30 1023.42 1023.50 1023.53 1023.53 1023.50 1023.44 1023.35 1023.25 1023.16 1023.08 1023.02 1022.99 1022.96 1022.94 1022.90 1022.82 1022.69 1022.49 1022.22 1021.88 1021.49 1021.07 1020.65 1020.24 1019.88 1019.58 1019.34 1019.15 1019.00 1018.88 1018.77 1018.66 1018.53 1018.40 1018.26 1018.14 1018.05 1018.01 1018.01 1018.06 1018.14 1018.24
1023.41 1023.51 1023.60 1023.66 1023.69 1023.69 1023.65 1023.59 1023.50 1023.40 1023.29 1023.19 1023.10 1023.03 1022.96 1022.90 1022.81 1022.69 1022.53 1022.30 1022.01 1021.67 1021.29 1020.88 1020.47 1020.08 1019.71 1019.38 1019.10 1018.84 1018.61 1018.40 1018.19 1017.97 1017.77 1017.57 1017.41 1017.29 1017.22 1017.22 1017.28 1017.39 1017.52
1023.55 1023.67 1023.78 1023.88 1023.94 1023.98 1023.96 1023.91 1023.81 1023.69 1023.54 1023.39 1023.24 1023.11 1023.00 1022.90 1022.80 1022.69 1022.56 1022.38 1022.14 1021.85 1021.51 1021.12 1020.71 1020.29 1019.88 1019.48 1019.11 1018.76 1018.44 1018.13 1017.83 1017.54 1017.27 1017.02 1016.81 1016.65 1016.56 1016.54 1016.59 1016.70 1016.84
1023.76 1023.92 1024.07 1024.20 1024.31 1024.37 1024.37 1024.32 1024.21 1024.05 1023.86 1023.65 1023.44 1023.25 1023.09 1022.96 1022.85 1022.74 1022.62 1022.48 1022.28 1022.03 1021.72 1021.35 1020.93 1020.49 1020.03 1019.58 1019.14 1018.72 1018.32 1017.94 1017.58 1017.24 1016.92 1016.62 1016.37 1016.18 1016.05 1016.00 1016.02 1016.11 1016.23
1024.03 1024.23 1024.42 1024.59 1024.72 1024.80 1024.82 1024.76 1024.64 1024.45 1024.22 1023.96 1023.71 1023.47 1023.27 1023.10 1022.96 1022.85 1022.74 1022.60 1022.43 1022.19 1021.88 1021.52 1021.09 1020.62 1020.13 1019.63 1019.14 1018.67 1018.23 1017.81 1017.41 1017.04 1016.69 1016.38 1016.10 1015.88 1015.72 1015.63 1015.61 1015.65 1015.72
1024.30 1024.53 1024.75 1024.95 1025.10 1025.20 1025.22 1025.17 1025.03 1024.83 1024.57 1024.29 1024.00 1023.73 1023.49 1023.30 1023.14 1023.00 1022.88 1022.73 1022.54 1022.29 1021.98 1021.59 1021.14 1020.64 1020.12 1019.59 1019.07 1018.58 1018.12 1017.68 1017.29 1016.92 1016.57 1016.26 1015.97 1015.74 1015.55 1015.42 1015.34 1015.32 1015.33
1024.54 1024.77 1025.00 1025.20 1025.37 1025.47 1025.50 1025.45 1025.32 1025.12 1024.86 1024.57 1024.27 1023.98 1023.73 1023.51 1023.32 1023.16 1023.00 1022.82 1022.60 1022.32 1021.96 1021.55 1021.06 1020.54 1019.99 1019.44 1018.91 1018.41 1017.96 1017.54 1017.17 1016.82 1016.50 1016.21 1015.94 1015.69 1015.49 1015.32 1015.19 1015.10 1015.04
1024.69 1024.91 1025.13 1025.32 1025.48 1025.58 1025.61 1025.57 1025.46 1025.27 1025.03 1024.75 1024.46 1024.17 1023.91 1023.67 1023.45 1023.25 1023.04 1022.82 1022.55 1022.22 1021.82 1021.36 1020.84 1020.29 1019.72 1019.17 1018.65 1018.17 1017.74 1017.36 1017.03 1016.73 1016.46 1016.20 1015.95 1015.71 1015.49 1015.29 1015.11 1014.96 1014.83
1024.79 1024.97 1025.15 1025.32 1025.46 1025.56 1025.60 1025.57 1025.47 1025.31 1025.09 1024.83 1024.56 1024.27 1024.00 1023.73 1023.48 1023.24 1022.98 1022.70 1022.37 1021.99 1021.54 1021.04 1020.50 1019.93 1019.36 1018.81 1018.31 1017.86 1017.48 1017.15 1016.87 1016.62 1016.40 1016.18 1015.96 1015.74 1015.51 1015.29 1015.07 1014.86 1014.67
1024.87 1025.00 1025.15 1025.29 1025.41 1025.49 1025.53 1025.51 1025.42 1025.28 1025.08 1024.84 1024.57 1024.28 1023.99 1023.70 1023.41 1023.11 1022.80 1022.45 1022.07 1021.63 1021.15 1020.62 1020.06 1019.49 1018.93 1018.40 1017.93 1017.53 1017.19 1016.91 1016.69 1016.50 1016.32 1016.15 1015.96 1015.75 1015.53 1015.29 1015.04 1014.79 1014.56
Thickness
5750 5751 5749 5746 5744 5743 5741 5740 5739 5739 5738 5737 5735 5735 5734 5733 5730 5726 5722 5719 5716 5714 5711 5707 5703 5700 5697 5694 5692 5690 5687 5685 5682 5680 5678 5676 5675 5673 5671 5669 5667 5666 5665
5751 5749 5747 5744 5742 5741 5739 5738 5737 5735 5733 5732 5731 5730 5729 5728 5725 5723 5719 5716 5713 5711 5708 5704 5701 5698 5695 5692 5688 5686 5683 5681 5679 5676 5674 5671 5669 5667 5665 5663 5662 5660 5659
5749 5747 5744 5742 5740 5738 5736 5734 5733 5731 5729 5727 5725 5725 5725 5723 5720 5717 5714 5712 5709 5707 5704 5701 5698 5695 5692 5689 5685 5682 5679 5676 5674 5671 5668 5666 5664 5662 5659 5657 5655 5654 5652
5746 5744 5741 5739 5737 5734 5732 5730 5727 5724 5722 5721 5719 5719 5719 5717 5715 5712 5709 5708 5706 5703 5700 5697 5694 5691 5688 5685 5682 5678 5675 5671 5668 5665 5662 5660 5657 5655 5653 5650 5648 5647 5645
5743 5740 5737 5734 5732 5730 5727 5724 5721 5717 5714 5712 5711 5712 5711 5710 5708 5707 5704 5702 5700 5697 5694 5691 5689 5686 5683 5680 5676 5673 5669 5665 5661 5658 5655 5653 5650 5648 5645 5643 5641 5639 5637
5738 5735 5731 5729 5726 5723 5719 5716 5713 5710 5707 5705 5703 5702 5702 5701 5700 5698 5697 5695 5692 5690 5687 5684 5681 5678 5675 5671 5668 5664 5661 5657 5653 5649 5646 5644 5642 5639 5637 5634 5632 5629 5628
5732 5729 5726 5723 5719 5715 5712 5709 5705 5701 5699 5697 5693 5691 5692 5692 5691 5689 5687 5686 5684 5681 5678 5676 5673 5670 5666 5662 5658 5655 5651 5647 5643 5640 5637 5634 5631 5629 5627 5624 5622 5619 5617
5724 5722 5719 5716 5713 5708 5704 5701 5698 5694 5691 5689 5685 5681 5677 5677 5679 5679 5677 5675 5674 5671 5669 5667 5663 5660 5657 5653 5648 5644 5639 5636 5632 5628 5625 5622 5619 5617 5615 5613 5611 5609 5607
5713 5710 5708 5706 5704 5700 5696 5693 5690 5687 5683 5680 5678 5674 5669 5666 5667 5667 5665 5664 5663 5661 5658 5656 5653 5649 5646 5642 5637 5632 5627 5622 5618 5615 5611 5608 5605 5603 5601 5599 5598 5597 5596
5702 5698 5696 5695 5694 5691 5688 5686 5684 5681 5676 5671 5669 5668 5665 5662 5658 5655 5655 5654 5653 5650 5648 5645 5642 5638 5634 5629 5624 5619 5614 5609 5604 5600 5596 5593 5590 5588 5586 5584 5583 5582 5582
5690 5687 5685 5683 5681 5679 5676 5675 5674 5670 5667 5664 5660 5658 5657 5654 5652 5648 5644 5643 5641 5639 5636 5633 5630 5625 5621 5616 5610 5605 5600 5595 5590 5585 5581 5577 5575 5573 5571 5569 5567 5566 5566
5677 5674 5671 5671 5668 5665 5663 5661 5659 5656 5654 5651 5647 5645 5643 5641 5639 5637 5633 5630 5627 5625 5623 5620 5617 5612 5607 5602 5596 5590 5585 5580 5575 5570 5566 5562 5558 5556 5555 5553 5551 5550 5549
5662 5659 5658 5656 5653 5650 5648 5647 5644 5642 5639 5636 5632 5630 5628 5626 5624 5623 5620 5616 5614 5612 5609 5606 5602 5598 5592 5586 5581 5575 5570 5565 5560 5556 5551 5547 5543 5540 5538 5536 5535 5533 5532
5648 5644 5642 5640 5638 5635 5633 5632 5629 5625 5622 5620 5617 5615 5613 5611 5608 5606 5603 5600 5597 5596 5593 5589 5587 5582 5577 5572 5566 5560 5555 5550 5546 5541 5537 5533 5529 5525 5522 5519 5517 5516 5514
5635 5631 5628 5625 5622 5620 5618 5616 5613 5609 5607 5604 5602 5600 5598 5595 5593 5590 5587 5584 5580 5577 5575 5572 5569 5565 5561 5556 5551 5546 5541 5536 5532 5528 5524 5520 5515 5511 5507 5504 5501 5499 5497
5621 5617 5613 5610 5607 5604 5602 5600 5597 5594 5592 5589 5586 5584 5581 5579 5577 5573 5570 5568 5565 5561 5556 5554 5551 5547 5543 5539 5535 5531 5527 5523 5519 5516 5512 5508 5502 5498 5494 5490 5487 5485 5483
5606 5602 5599 5596 5593 5590 5587 5584 5582 5579 5576 5573 5571 5569 5565 5562 5559 5556 5553 5550 5547 5543 5539 5536 5534 5530 5527 5523 5520 5516 5513 5510 5507 5504 5501 5497 5492 5488 5484 5480 5477 5474 5471
5592 5589 5585 5582 5579 5576 5573 5571 5568 5565 5562 5559 5556 5552 5549 5547 5542 5538 5535 5532 5529 5526 5522 5519 5516 5514 5512 5510 5507 5504 5501 5499 5496 5493 5491 5488 5484 5479 5475 5472 5469 5466 5463
5578 5574 5571 5568 5565 5563 5560 5557 5554 5551 5547 5544 5540 5536 5533 5530 5525 5520 5517 5515 5512 5509 5505 5503 5501 5499 5498 5497 5495 5492 5490 5487 5485 5483 5482 5479 5476 5472 5469 5466 5463 5461 5457
5564 5561 5558 5555 5552 5548 5544 5541 5538 5536 5532 5529 5525 5521 5518 5514 5508 5503 5500 5496 5494 5490 5489 5487 5487 5486 5485 5484 5482 5479 5478 5477 5475 5474 5472 5470 5468 5465 5463 5461 5458 5456 5452
5552 5549 5546 5543 5539 5534 5527 5523 5521 5521 5517 5513 5510 5506 5503 5498 5492 5487 5484 5479 5476 5474 5472 5473 5473 5473 5472 5471 5469 5468 5467 5467 5467 5467 5465 5463 5462 5460 5457 5455 5453 5450 5447
5540 5537 5534 5530 5525 5518 5512 5508 5505 5503 5501 5499 5495 5492 5488 5484 5479 5474 5470 5467 5464 5462 5461 5460 5461 5462 5461 5461 5460 5459 5459 5458 5459 5460 5457 5456 5457 5454 5452 5451 5448 5445 5441
5528 5525 5522 5517 5510 5503 5499 5495 5492 5490 5488 5486 5483 5479 5475 5473 5468 5463 5460 5459 5458 5457 5456 5453 5453 5454 5455 5456 5455 5454 5453 5452 5452 5454 5453 5452 5452 5449 5448 5446 5443 5439 5436
5518 5515 5512 5507 5500 5492 5487 5484 5481 5480 5479 5476 5473 5470 5466 5462 5457 5453 5453 5454 5454 5455 5454 5454 5453 5453 5454 5454 5452 5450 5449 5450 5451 5451 5450 5447 5447 5446 5445 5442 5439 5435 5431
5509 5506 5502 5497 5490 5483 5478 5474 5471 5471 5471 5468 5466 5463 5459 5456 5450 5448 5449 5450 5452 5453 5455 5455 5454 5454 5455 5455 5453 5449 5448 5448 5448 5449 5448 5444 5444 5442 5441 5438 5435 5431 5427
5501 5498 5494 5489 5484 5477 5470 5467 5463 5464 5463 5462 5461 5458 5455 5452 5450 5448 5447 5448 5450 5452 5453 5454 5456 5457 5458 5458 5457 5452 5449 5447 5446 5446 5446 5442 5440 5437 5435 5434 5431 5428 5424